Traverse City, MI

10:28 AM EDT on September 16, 2019 (GMT -0400)
Cherry Capital

Weather History for KTVC - August, 2019

Change the Weather History Date:

Sunday, August 18, 2019

  Actual Average Record
Temperature  
Mean Temperature 71 °F 67 °F  
Max Temperature 82 °F 78 °F 100 °F (1955)
Min Temperature 60 °F 57 °F 40 °F (1962)
Degree Days  
Heating Degree Days 0 1  
Month to date heating degree days 0 18  
Since 1 June heating degree days 133 158  
Since 1 July heating degree days 7 46  
Cooling Degree Days 6 4  
Month to date cooling degree days 77 78  
Year to date cooling degree days 370 331  
Since 1 June cooling degree days 367 311  
Growing Degree Days 22 (Base 50)    
Moisture  
Dew Point 64 °F    
Average Humidity 74    
Maximum Humidity 93    
Minimum Humidity 54    
Precipitation  
Precipitation 0.09 in 0.11 in 1.31 in (1990)
Month to date precipitation 1.04 1.96  
Year to date precipitation 18.64 19.69  
Sea Level Pressure  
Sea Level Pressure 29.76 in    
Wind  
Wind Speed 9 mph (SSW)    
Max Wind Speed 24 mph    
Max Gust Speed 37 mph    
Visibility 10 miles    
Events Rain , Thunderstorm    
T = Trace of Precipitation, MM = Missing Value Source: NWS Daily Summary

Daily Weather History Graph

Daily Weather History Graph

Search for Another Location

Airport or City:

Astronomy

Aug. 18, 2019 Rise Set
Actual Time 6:47 AM EDT 8:43 PM EDT
Civil Twilight 6:16 AM EDT 9:15 PM EDT
Nautical Twilight 5:37 AM EDT 9:53 PM EDT
Astronomical Twilight 4:55 AM EDT 10:35 PM EDT
Moon 10:31 PM EDT (8/18) 9:37 AM EDT (8/18)
Length of Visible Light 14h 58m
Length of Day
13h 55m
Waning Gibbous, 91% of the Moon is Illuminated
Aug 18
Waning Gibbous
Aug 23
Last Quarter
Aug 30
New
Sep 5
First Quarter
Sep 14
Full

Hourly Weather History & Observations

Time (EDT) Temp. Heat Index Dew Point Humidity Pressure Visibility Wind Dir Wind Speed Gust Speed Precip Events Conditions
1:53 AM 64.0 °F - 61.0 °F 90% 29.87 in 10.0 mi Calm Calm - N/A   Clear
2:53 AM 62.1 °F - 60.1 °F 93% 29.85 in 7.0 mi Calm Calm - N/A   Clear
4:53 AM 62.1 °F - 59.0 °F 90% 29.83 in 9.0 mi Calm Calm - N/A   Clear
5:53 AM 61.0 °F - 57.9 °F 90% 29.83 in 10.0 mi Calm Calm - N/A   Clear
6:53 AM 63.0 °F - 60.1 °F 90% 29.81 in 10.0 mi West 3.5 mph - N/A   Partly Cloudy
7:53 AM 66.0 °F - 62.1 °F 87% 29.78 in 10.0 mi South 3.5 mph - N/A   Scattered Clouds
8:53 AM 71.1 °F - 63.0 °F 75% 29.79 in 10.0 mi SSE 3.5 mph - N/A   Scattered Clouds
9:53 AM 75.9 °F - 64.9 °F 69% 29.76 in 10.0 mi South 5.8 mph - N/A   Mostly Cloudy
10:53 AM 79.0 °F - 66.9 °F 66% 29.75 in 10.0 mi South 13.8 mph 28.8 mph N/A   Mostly Cloudy
11:53 AM 82.0 °F 84.5 °F 66.9 °F 60% 29.75 in 10.0 mi South 13.8 mph 24.2 mph N/A   Mostly Cloudy
12:53 PM 75.0 °F - 68.0 °F 79% 29.72 in 7.0 mi South 11.5 mph 20.7 mph 0.02 in Rain Light Rain
1:16 PM 73.0 °F - 68.0 °F 84% 29.68 in 5.0 mi SE 11.5 mph 24.2 mph 0.06 in Rain , Thunderstorm Thunderstorms and Rain
1:53 PM 73.9 °F - 69.1 °F 85% 29.70 in 10.0 mi South 13.8 mph 24.2 mph 0.06 in   Mostly Cloudy
2:53 PM 79.0 °F - 66.9 °F 66% 29.69 in 10.0 mi SSW 10.4 mph 19.6 mph N/A   Mostly Cloudy
3:53 PM 81.0 °F 82.7 °F 64.9 °F 58% 29.68 in 10.0 mi SW 17.3 mph 29.9 mph N/A   Mostly Cloudy
4:53 PM 81.0 °F 82.2 °F 63.0 °F 54% 29.70 in 10.0 mi WSW 24.2 mph 36.8 mph N/A   Mostly Cloudy
5:53 PM 78.1 °F - 63.0 °F 60% 29.74 in 10.0 mi SW 18.4 mph 26.5 mph N/A   Mostly Cloudy
6:53 PM 77.0 °F - 63.0 °F 62% 29.75 in 10.0 mi SW 13.8 mph 23.0 mph N/A   Mostly Cloudy
7:53 PM 75.0 °F - 64.0 °F 69% 29.75 in 10.0 mi WSW 15.0 mph 24.2 mph N/A   Mostly Cloudy
8:53 PM 73.0 °F - 63.0 °F 71% 29.75 in 10.0 mi WSW 10.4 mph 20.7 mph N/A   Scattered Clouds
9:53 PM 72.0 °F - 63.0 °F 73% 29.79 in 10.0 mi SW 6.9 mph - N/A   Mostly Cloudy
10:53 PM 70.0 °F - 63.0 °F 78% 29.80 in 10.0 mi SW 4.6 mph - N/A   Clear
11:53 PM 71.1 °F - 63.0 °F 75% 29.82 in 10.0 mi SW 8.1 mph - N/A   Mostly Cloudy